Volver al catálogo

STARLINK-34825

ActivoComunicacionesVLEO
NORAD 65692·PAYLOAD·🇺🇸 United States

Lanzado Sep 21, 2025 desde Cape Canaveral Space Force Station

Loading…

Próximos Pases (próximas 24 horas)

TLE

ActualizadoSource: CelesTrak SupGP

Época: Sep 15, 2026, 03:35 UTC

1 65692C 25212S   26258.14979167 -.00019822  00000+0 -58573-3 0  2589
2 65692  53.1572 182.7844 0001359  86.7458 185.7793 15.34395480    16

Sigue STARLINK-34825 en tiempo real con AllMySat

Download on the App Store